Date String (YYYY-MM-DD hh:mm:ss) UTC,Instrument flags,Ambient pressure (hPa),Sample flow (lpm),Bypass flow (lpm),Sample temperature (°C),Ambient temperature (°C),ASC tube jacket temperature (°C),LED temperature (°C),Box temperature (°C),Sample RH (%),Span deviation,Mass concentration (μg/m³),Mass concentration (μg/m³),Mass concentration (μg/m³)
DateTimeUTC,F1_M11,P_M11,Q1_M11,Q2_M11,T1_M11,T2_M11,T3_M11,T4_M11,T5_M11,U1_M11,ZSPAN_M11,X0_M11,X2_M11,X1_M11
2022-02-02 13:00:00,,0824.9,4.99,0.00,22.0,21.6,00.0,31.1,23.6,06.3,0000.0,0003.96,0001.35,0000.90
2022-02-02 13:01:00,,0824.9,5.00,0.00,22.1,22.4,00.0,31.2,23.9,06.3,0000.0,0003.96,0001.32,0000.89
2022-02-02 13:02:00,,0824.9,5.02,0.00,22.3,23.1,00.0,31.2,24.1,06.2,0000.0,0003.49,0001.39,0000.90
2022-02-02 13:03:00,,0824.8,4.99,0.00,22.4,23.3,00.0,31.2,24.3,06.2,0000.0,0003.66,0001.41,0000.90
2022-02-02 13:04:00,,0824.9,5.00,0.00,22.4,22.9,00.0,31.2,24.2,06.2,0000.0,0003.59,0001.38,0000.89
2022-02-02 13:05:00,,0824.8,4.99,0.00,22.4,22.5,00.0,31.2,24.1,06.2,0000.0,0003.38,0001.36,0000.89
2022-02-02 13:06:00,,0824.9,5.02,0.00,22.3,22.2,00.0,31.2,24.0,06.2,0000.0,0002.68,0001.34,0000.90
2022-02-02 13:07:00,,0824.9,4.99,0.00,22.3,21.9,00.0,31.2,23.9,06.2,0000.0,0002.54,0001.32,0000.90
2022-02-02 13:08:00,,0824.9,5.00,0.00,22.2,21.7,00.0,31.2,23.8,06.2,0000.0,0002.58,0001.36,0000.91
2022-02-02 13:09:00,,0824.9,5.00,0.00,22.1,21.5,00.0,31.2,23.7,06.2,0000.0,0002.66,0001.38,0000.92
2022-02-02 13:10:00,,0824.9,5.01,0.00,22.1,21.4,00.0,31.2,23.6,06.2,0000.0,0002.66,0001.38,0000.92
2022-02-02 13:11:00,,0824.8,4.98,0.00,22.0,21.2,00.0,31.2,23.5,06.3,0000.0,0002.72,0001.40,0000.91
2022-02-02 13:12:00,,0824.9,5.02,0.00,22.0,21.1,00.0,31.1,23.5,06.3,0000.0,0002.67,0001.39,0000.91
2022-02-02 13:13:00,,0824.9,4.99,0.00,22.0,21.7,00.0,31.1,23.6,06.2,0000.0,0002.78,0001.33,0000.91
2022-02-02 13:14:00,,0824.9,5.01,0.00,22.1,22.4,00.0,31.2,23.9,06.2,0000.0,0002.85,0001.32,0000.90
2022-02-02 13:15:00,,0824.9,4.98,0.00,22.3,23.1,00.0,31.2,24.1,06.2,0000.0,0003.16,0001.37,0000.91
2022-02-02 13:16:00,,0825.0,5.00,0.00,22.3,23.0,00.0,31.2,24.2,06.1,0000.0,0003.09,0001.35,0000.90
2022-02-02 13:17:00,,0825.0,5.01,0.00,22.3,22.6,00.0,31.2,24.1,06.1,0000.0,0002.99,0001.32,0000.89
2022-02-02 13:18:00,,0825.1,5.00,0.00,22.3,22.2,00.0,31.2,23.9,06.1,0000.0,0003.12,0001.32,0000.88
2022-02-02 13:19:00,,0825.1,5.00,0.00,22.2,21.8,00.0,31.2,23.8,06.1,0000.0,0003.19,0001.31,0000.87
2022-02-02 13:20:00,,0825.0,5.00,0.00,22.1,21.5,00.0,31.2,23.7,06.2,0000.0,0003.40,0001.31,0000.86
2022-02-02 13:21:00,,0825.1,5.02,0.00,22.0,21.3,00.0,31.2,23.6,06.2,0000.0,0003.67,0001.31,0000.85
2022-02-02 13:22:00,,0825.1,4.98,0.00,22.0,21.1,00.0,31.1,23.4,06.2,0000.0,0004.00,0001.28,0000.85
2022-02-02 13:23:00,,0825.1,5.01,0.00,21.9,21.2,00.0,31.1,23.4,06.2,0000.0,0004.20,0001.35,0000.85
2022-02-02 13:24:00,,0825.0,5.00,0.00,22.0,21.9,00.0,31.1,23.6,06.2,0000.0,0003.89,0001.37,0000.84
2022-02-02 13:25:00,,0825.1,4.99,0.00,22.1,22.7,00.0,31.2,23.9,06.2,0000.0,0003.78,0001.40,0000.85
2022-02-02 13:26:00,,0825.1,5.00,0.00,22.2,23.2,00.0,31.2,24.1,06.1,0000.0,0003.48,0001.41,0000.86
2022-02-02 13:27:00,,0825.1,5.01,0.00,22.3,22.9,00.0,31.2,24.1,06.1,0000.0,0003.58,0001.42,0000.86
2022-02-02 13:28:00,,0825.0,5.00,0.00,22.3,22.5,00.0,31.2,24.0,06.1,0000.0,0003.72,0001.46,0000.87
2022-02-02 13:29:00,,0825.1,5.00,0.00,22.2,22.2,00.0,31.2,23.9,06.1,0000.0,0003.72,0001.50,0000.88
2022-02-02 13:30:00,,0825.1,4.99,0.00,22.2,21.8,00.0,31.2,23.8,06.1,0000.0,0003.65,0001.48,0000.88
2022-02-02 13:31:00,,0825.1,5.01,0.00,22.1,21.6,00.0,31.2,23.6,06.1,0000.0,0003.49,0001.47,0000.89
2022-02-02 13:32:00,,0825.1,4.99,0.00,22.0,21.3,00.0,31.1,23.5,06.2,0000.0,0003.30,0001.47,0000.90
2022-02-02 13:33:00,,0825.1,5.00,0.00,21.9,21.0,00.0,31.1,23.4,06.2,0000.0,0003.03,0001.47,0000.91
2022-02-02 13:34:00,,0825.1,5.01,0.00,21.9,21.3,00.0,31.1,23.4,06.2,0000.0,0002.80,0001.43,0000.91
2022-02-02 13:35:00,,0825.1,4.99,0.00,22.0,22.1,00.0,31.1,23.7,06.1,0000.0,0002.82,0001.44,0000.92
2022-02-02 13:36:00,,0825.1,4.99,0.00,22.1,22.7,00.0,31.1,23.9,06.1,0000.0,0003.17,0001.44,0000.92
2022-02-02 13:37:00,,0825.1,5.01,0.00,22.3,23.0,00.0,31.2,24.1,06.1,0000.0,0003.31,0001.40,0000.92
2022-02-02 13:38:00,,0825.1,5.00,0.00,22.2,22.6,00.0,31.2,24.0,06.1,0000.0,0003.13,0001.34,0000.91
2022-02-02 13:39:00,,0825.1,5.01,0.00,22.2,22.1,00.0,31.2,23.8,06.1,0000.0,0003.12,0001.34,0000.90
2022-02-02 13:40:00,,0825.1,5.01,0.00,22.1,21.8,00.0,31.1,23.7,06.1,0000.0,0003.18,0001.34,0000.90
2022-02-02 13:41:00,,0825.2,4.99,0.00,22.0,21.5,00.0,31.1,23.5,06.1,0000.0,0003.20,0001.36,0000.91
2022-02-02 13:42:00,,0825.1,5.02,0.00,21.9,21.2,00.0,31.1,23.4,06.2,0000.0,0003.30,0001.37,0000.90
2022-02-02 13:43:00,,0825.2,4.98,0.00,21.8,21.0,00.0,31.0,23.2,06.2,0000.0,0003.24,0001.37,0000.89
2022-02-02 13:44:00,,0825.2,5.01,0.00,21.8,21.2,00.0,31.0,23.3,06.2,0000.0,0003.23,0001.39,0000.90
2022-02-02 13:45:00,,0825.2,4.99,0.00,21.9,22.0,00.0,31.0,23.5,06.2,0000.0,0003.28,0001.40,0000.91
2022-02-02 13:46:00,,0825.3,5.01,0.00,22.0,22.7,00.0,31.1,23.8,06.1,0000.0,0003.22,0001.37,0000.91
2022-02-02 13:47:00,,0825.2,4.99,0.00,22.2,23.0,00.0,31.1,24.0,06.1,0000.0,0002.99,0001.35,0000.90
2022-02-02 13:48:00,,0825.2,5.00,0.00,22.2,22.6,00.0,31.1,24.0,06.1,0000.0,0002.67,0001.34,0000.90
2022-02-02 13:49:00,,0825.2,5.00,0.00,22.1,22.2,00.0,31.1,23.8,06.1,0000.0,0003.07,0001.37,0000.89
2022-02-02 13:50:00,,0825.2,5.01,0.00,22.1,21.8,00.0,31.1,23.7,06.1,0000.0,0003.04,0001.38,0000.90
2022-02-02 13:51:00,,0825.2,4.99,0.00,22.0,21.5,00.0,31.1,23.5,06.1,0000.0,0003.25,0001.37,0000.90
2022-02-02 13:52:00,,0825.2,5.02,0.00,21.9,21.3,00.0,31.1,23.4,06.1,0000.0,0003.21,0001.35,0000.90
2022-02-02 13:53:00,,0825.2,5.00,0.00,21.8,21.0,00.0,31.0,23.3,06.2,0000.0,0003.04,0001.32,0000.90
2022-02-02 13:54:00,,0825.2,5.00,0.00,21.8,21.0,00.0,31.0,23.3,06.2,0000.0,0003.06,0001.30,0000.90
2022-02-02 13:55:00,,0825.2,5.00,0.00,21.9,21.9,00.0,31.0,23.5,06.2,0000.0,0003.08,0001.26,0000.89
2022-02-02 13:56:00,,0825.3,4.99,0.00,22.0,22.6,00.0,31.0,23.8,06.1,0000.0,0003.08,0001.26,0000.89
2022-02-02 13:57:00,,0825.3,5.01,0.00,22.2,23.1,00.0,31.1,24.0,06.1,0000.0,0003.10,0001.28,0000.88
2022-02-02 13:58:00,,0825.2,5.01,0.00,22.2,22.8,00.0,31.1,24.0,06.1,0000.0,0003.27,0001.34,0000.89
2022-02-02 13:59:00,,0825.2,4.98,0.00,22.2,22.4,00.0,31.1,23.9,06.1,0000.0,0003.27,0001.33,0000.89
